SL-19 DEB, 23482

Orbit data source: Space-Track

SL-19 DEB, 23482 is space debris in LEO originally from a launch on Mon, 26 Dec 1994 UTC launched from the Tyuratam Missile And Space Complex (TTMTR). Debris objects in space refer to the collection of defunct objects orbiting the Earth. Examples of debris include non-operational satellites, rocket bodies, and fragments generated from explosions, collisions, or faulty payload assembly.

Loading next visibility...
Identifier
23482, 1994-085E
Orbit
LEO
Country
Flag of CISCIS
Related business
Manufacturer
Unknown
Mission
Spacecraft
Bus & Motor
Unknown
Mass
Unknown
Launch date (UTC)
1994-12-26 (31 years ago)
Launch vehicle
Unknown
Launch site
Tyuratam Missile And Space Complex (TTMTR)
Object type
Payload
Rocket body
Debris
Shape & HBR
Unknown shape, 0.1 m
Radar Cross Section
Medium (>0.1 m² and <1 m²)

Expand to show TLE details & history
Last TLE update: 10 hours ago

TLE from 10 hours ago
0 SL-19 DEB
1 23482U 94085E   26062.38685843  .00000593  00000-0  14936-1 0  9997
2 23482  64.7036  47.7701 0391180 207.8161 310.1221 11.31615571284500
Epoch: 2026-03-03T09:17Z
TLE epoch observation values (Epoch: 2026-03-03T09:17:04.568Z)
Latitude
23.02769°
Longitude
-84.19849°
Altitude
1,800.479 km
Speed
7.069 km/s
True Right ascension
14h 24m 56s
True Declination
22° 55' 12"
Sunlit
Object was in daylight at epoch
Visualization orbit readout
Latitude
Unknown
Longitude
Unknown
Altitude
Unknown
Speed
Unknown
Apparent Right ascension
Unknown
Apparent Declination
Unknown
Sunlit
N/A
Visualization observer readout
Local Sidereal Time
23:29:47
Azimuth
Unknown
Elevation
Unknown
Doppler factor
Unknown
Orbital elements
Apogee altitude
2,328.945 km
Perigee altitude
1,673.382 km
Semi-major axis
8,379.301 km
Eccentricity
0.03912
Inclination
64.7036°
RAAN
47.7701°
Arg. of periapsis
207.8161°
True anomaly
306.58527°
Mean anomaly
310.1221°
Eccentric anomaly
308.36475°
Mean motion
2.82964 °/min
Orbital period
127.22 mins
BSTAR
0.014936
Loading maneuver chart data...
Computing Atmospheric mass density...
Loading historical data...
Loading historical data...
Loading historical data...
Loading historical data...
Loading historical data...
Loading historical data...
Loading historical data...

Documentation

Showing up to 5 results
|